| time (UTC) | temp F | wind direction | speed knots | gust knots | rain 1hr in | rain 24hr in | rain mn in | humidity % | barometer mb |
| 20260507023603 | 53 | 132 | 0.9 | 1.7 | 0.00 | 0.00 | 0.00 | 80 | 1010.6 |
| 20260507022703 | 54 | 126 | 0.9 | 1.7 | 0.00 | 0.00 | 0.00 | 79 | 1010.6 |
| 20260507021803 | 54 | 132 | 0.9 | 2.6 | 0.00 | 0.00 | 0.00 | 79 | 1010.4 |
| 20260507020903 | 54 | 125 | 1.7 | 2.6 | 0.00 | 0.00 | 0.00 | 78 | 1010.7 |
| 20260507020003 | 54 | 126 | 0.9 | 1.7 | 0.00 | 0.00 | 0.00 | 78 | 1010.6 |
| 20260507015403 | 54 | 141 | 2.6 | 3.5 | 0.00 | 0.00 | 0.00 | 78 | 1010.5 |
| 20260507014503 | 54 | 145 | 3.5 | 5.2 | 0.00 | 0.00 | 0.00 | 78 | 1010.6 |
| 20260507013603 | 54 | 150 | 4.3 | 6.1 | 0.00 | 0.00 | 0.00 | 77 | 1010.7 |
| 20260507012703 | 55 | 160 | 2.6 | 6.1 | 0.00 | 0.00 | 0.00 | 76 | 1010.7 |
| 20260507012017 | 55 | 155 | 3.5 | 7.0 | 0.00 | 0.00 | 0.00 | 76 | 1010.7 |
| 20260507010903 | 55 | 156 | 4.3 | 7.0 | 0.00 | 0.00 | 0.00 | 77 | 1010.9 |
| 20260507010003 | 55 | 157 | 4.3 | 7.8 | 0.00 | 0.00 | 0.00 | 76 | 1010.7 |
| 20260507005403 | 55 | 155 | 3.5 | 7.8 | 0.00 | 0.00 | 0.00 | 76 | 1010.9 |
| 20260507004716 | 56 | 168 | 2.6 | 6.1 | 0.00 | 0.00 | 0.00 | 74 | 1010.9 |
| 20260507003603 | 57 | 194 | 4.3 | 7.8 | 0.00 | 0.00 | 0.00 | 74 | 1011.0 |
| 20260507002917 | 57 | 200 | 4.3 | 7.8 | 0.00 | 0.00 | 0.00 | 73 | 1011.0 |
| 20260507001803 | 56 | 160 | 2.6 | 6.1 | 0.00 | 0.00 | 0.00 | 74 | 1011.2 |
| 20260507000903 | 56 | 188 | 3.5 | 6.1 | 0.00 | 0.00 | 0.00 | 74 | 1011.5 |
| 20260507000009 | 56 | 173 | 3.5 | 6.1 | 0.00 | 0.00 | 0.00 | 74 | 1011.5 |
| 20260506235403 | 56 | 168 | 3.5 | 7.0 | 0.00 | 0.00 | 0.00 | 74 | 1011.5 |
| 20260506234503 | 56 | 161 | 3.5 | 6.1 | 0.00 | 0.00 | 0.00 | 73 | 1011.5 |
| 20260506233603 | 57 | 172 | 3.5 | 7.0 | 0.00 | 0.00 | 0.00 | 72 | 1011.5 |
| 20260506232917 | 58 | 186 | 3.5 | 7.0 | 0.00 | 0.00 | 0.00 | 71 | 1011.6 |
| 20260506231803 | 58 | 182 | 4.3 | 8.7 | 0.00 | 0.00 | 0.00 | 70 | 1011.5 |
| 20260506230903 | 58 | 184 | 4.3 | 7.8 | 0.00 | 0.00 | 0.00 | 69 | 1011.5 |
| 20260506230003 | 58 | 189 | 3.5 | 8.7 | 0.00 | 0.00 | 0.00 | 68 | 1011.4 |
| 20260506225618 | 58 | 184 | 4.3 | 8.7 | 0.00 | 0.00 | 0.00 | 67 | 1011.5 |
| 20260506224504 | 59 | 192 | 4.3 | 11.3 | 0.00 | 0.00 | 0.00 | 66 | 1011.4 |
| 20260506223603 | 59 | 180 | 3.5 | 8.7 | 0.00 | 0.00 | 0.00 | 64 | 1011.3 |
| 20260506222703 | 60 | 187 | 4.3 | 9.6 | 0.00 | 0.00 | 0.00 | 63 | 1011.2 |
| 20260506221803 | 60 | 198 | 5.2 | 12.2 | 0.00 | 0.00 | 0.00 | 62 | 1011.2 |
| 20260506220903 | 60 | 185 | 4.3 | 8.7 | 0.00 | 0.00 | 0.00 | 61 | 1011.0 |
| 20260506220003 | 60 | 165 | 4.3 | 8.7 | 0.00 | 0.00 | 0.00 | 60 | 1011.0 |
| 20260506215403 | 60 | 160 | 4.3 | 8.7 | 0.00 | 0.00 | 0.00 | 59 | 1011.4 |
| 20260506214717 | 61 | 171 | 3.5 | 7.8 | 0.00 | 0.00 | 0.00 | 57 | 1011.3 |
| 20260506213603 | 61 | 163 | 5.2 | 8.7 | 0.00 | 0.00 | 0.00 | 56 | 1011.2 |
| 20260506212703 | 61 | 161 | 5.2 | 15.6 | 0.00 | 0.00 | 0.00 | 51 | 1011.0 |
| 20260506211803 | 64 | 142 | 1.7 | 3.5 | 0.00 | 0.00 | 0.00 | 43 | 1010.4 |
| 20260506210903 | 67 | 182 | 1.7 | 2.6 | 0.00 | 0.00 | 0.00 | 37 | 1010.6 |
| 20260506210003 | 68 | 199 | 2.6 | 3.5 | 0.00 | 0.00 | 0.00 | 36 | 1010.3 |
| 20260506205403 | 68 | 201 | 2.6 | 3.5 | 0.00 | 0.00 | 0.00 | 36 | 1010.4 |
| 20260506204503 | 68 | 203 | 2.6 | 3.5 | 0.00 | 0.00 | 0.00 | 36 | 1010.1 |
| 20260506203603 | 68 | 204 | 2.6 | 3.5 | 0.00 | 0.00 | 0.00 | 36 | 1010.2 |
| 20260506202918 | 68 | 200 | 2.6 | 5.2 | 0.00 | 0.00 | 0.00 | 37 | 1010.0 |
| 20260506201803 | 68 | 186 | 1.7 | 3.5 | 0.00 | 0.00 | 0.00 | 37 | 1010.0 |
| 20260506200903 | 68 | 171 | 0.9 | 2.6 | 0.00 | 0.00 | 0.00 | 37 | 1010.1 |
| 20260506200003 | 68 | 190 | 1.7 | 2.6 | 0.00 | 0.00 | 0.00 | 36 | 1009.8 |
| 20260506195403 | 68 | 187 | 1.7 | 2.6 | 0.00 | 0.00 | 0.00 | 36 | 1009.9 |
| 20260506194503 | 68 | 169 | 0.9 | 2.6 | 0.00 | 0.00 | 0.00 | 36 | 1009.7 |
| 20260506193603 | 68 | 161 | 0.9 | 1.7 | 0.00 | 0.00 | 0.00 | 35 | 1009.7 |
| 20260506192703 | 69 | 173 | 1.7 | 1.7 | 0.00 | 0.00 | 0.00 | 34 | 1009.7 |
| 20260506191803 | 69 | 185 | 1.7 | 2.6 | 0.00 | 0.00 | 0.00 | 34 | 1009.6 |
| 20260506190903 | 69 | 188 | 1.7 | 3.5 | 0.00 | 0.00 | 0.00 | 33 | 1009.6 |
| 20260506190004 | 71 | 186 | 2.6 | 5.2 | 0.00 | 0.00 | 0.00 | 33 | 1009.6 |
| 20260506185403 | 71 | 183 | 1.7 | 5.2 | 0.00 | 0.00 | 0.00 | 33 | 1009.4 |
| 20260506184503 | 71 | 154 | 0.9 | 2.6 | 0.00 | 0.00 | 0.00 | 34 | 1009.4 |
| 20260506183603 | 72 | 164 | 0.9 | 2.6 | 0.00 | 0.00 | 0.00 | 34 | 1009.4 |
| 20260506182703 | 72 | 195 | 1.7 | 6.1 | 0.00 | 0.00 | 0.00 | 32 | 1009.4 |
| 20260506182017 | 72 | 198 | 2.6 | 6.1 | 0.00 | 0.00 | 0.00 | 32 | 1009.3 |
| 20260506180903 | 72 | 177 | 1.7 | 5.2 | 0.00 | 0.00 | 0.00 | 33 | 1009.5 |
| 20260506180218 | 72 | 192 | 1.7 | 5.2 | 0.00 | 0.00 | 0.00 | 34 | 1009.3 |
| 20260506175403 | 72 | 168 | 0.9 | 2.6 | 0.00 | 0.00 | 0.00 | 33 | 1009.6 |
| 20260506174717 | 72 | 189 | 1.7 | 5.2 | 0.00 | 0.00 | 0.00 | 33 | 1009.6 |
| 20260506173603 | 72 | 199 | 3.5 | 7.0 | 0.00 | 0.00 | 0.00 | 32 | 1009.5 |
| 20260506172703 | 72 | 178 | 2.6 | 6.1 | 0.00 | 0.00 | 0.00 | 32 | 1009.5 |
| 20260506172017 | 72 | 196 | 1.7 | 5.2 | 0.00 | 0.00 | 0.00 | 32 | 1009.6 |
| 20260506170903 | 71 | 215 | 2.6 | 7.0 | 0.00 | 0.00 | 0.00 | 31 | 1009.7 |
| 20260506170218 | 72 | 218 | 3.5 | 7.8 | 0.00 | 0.00 | 0.00 | 31 | 1009.9 |
| 20260506165403 | 72 | 214 | 2.6 | 6.1 | 0.00 | 0.00 | 0.00 | 30 | 1009.8 |
| 20260506164503 | 71 | 205 | 3.5 | 7.0 | 0.00 | 0.00 | 0.00 | 31 | 1009.9 |
| 20260506163603 | 71 | 172 | 3.5 | 7.8 | 0.00 | 0.00 | 0.00 | 31 | 1009.9 |
| 20260506162703 | 71 | 150 | 4.3 | 7.8 | 0.00 | 0.00 | 0.00 | 33 | 1009.7 |
| 20260506161803 | 72 | 171 | 3.5 | 7.0 | 0.00 | 0.00 | 0.00 | 33 | 1009.9 |
| 20260506160903 | 72 | 168 | 3.5 | 11.3 | 0.00 | 0.00 | 0.00 | 33 | 1010.2 |
| 20260506160003 | 71 | 182 | 2.6 | 7.0 | 0.00 | 0.00 | 0.00 | 32 | 1010.1 |
| 20260506155403 | 71 | 150 | 1.7 | 7.0 | 0.00 | 0.00 | 0.00 | 30 | 1010.2 |
| 20260506154503 | 71 | 168 | 1.7 | 5.2 | 0.00 | 0.00 | 0.00 | 30 | 1010.3 |
| 20260506153603 | 72 | 218 | 2.6 | 6.1 | 0.00 | 0.00 | 0.00 | 30 | 1010.2 |
| 20260506152703 | 72 | 235 | 3.5 | 7.8 | 0.00 | 0.00 | 0.00 | 29 | 1010.3 |
| 20260506151803 | 72 | 207 | 4.3 | 7.0 | 0.00 | 0.00 | 0.00 | 32 | 1010.4 |
| 20260506150903 | 73 | 186 | 1.7 | 7.0 | 0.00 | 0.00 | 0.00 | 31 | 1010.4 |
| 20260506150217 | 71 | 159 | 1.7 | 5.2 | 0.00 | 0.00 | 0.00 | 32 | 1010.6 |
| 20260506145616 | 70 | 160 | 2.6 | 7.8 | 0.00 | 0.00 | 0.00 | 32 | 1010.8 |
| 20260506144503 | 70 | 238 | 3.5 | 7.0 | 0.00 | 0.00 | 0.00 | 32 | 1010.9 |
| 20260506143603 | 70 | 222 | 3.5 | 8.7 | 0.00 | 0.00 | 0.00 | 33 | 1011.0 |
| 20260506142703 | 70 | 172 | 3.5 | 7.8 | 0.00 | 0.00 | 0.00 | 35 | 1011.2 |
| 20260506141803 | 69 | 141 | 2.6 | 7.0 | 0.00 | 0.00 | 0.00 | 34 | 1011.3 |
| 20260506141117 | 69 | 203 | 3.5 | 6.1 | 0.00 | 0.00 | 0.00 | 33 | 1011.5 |
| 20260506140004 | 71 | 249 | 1.7 | 5.2 | 0.00 | 0.00 | 0.00 | 34 | 1011.3 |
| 20260506135403 | 70 | 208 | 1.7 | 5.2 | 0.00 | 0.00 | 0.00 | 33 | 1011.4 |
| 20260506134503 | 69 | 124 | 1.7 | 5.2 | 0.00 | 0.00 | 0.00 | 35 | 1011.7 |
| 20260506133603 | 69 | 275 | 2.6 | 6.1 | 0.00 | 0.00 | 0.00 | 33 | 1011.6 |
| 20260506132703 | 70 | 294 | 2.6 | 6.1 | 0.00 | 0.00 | 0.00 | 34 | 1011.8 |
| 20260506131803 | 71 | 171 | 1.7 | 3.5 | 0.00 | 0.00 | 0.00 | 32 | 1012.0 |
| 20260506130903 | 69 | 142 | 1.7 | 3.5 | 0.00 | 0.00 | 0.00 | 33 | 1011.9 |
| 20260506130004 | 69 | 40 | 2.6 | 6.1 | 0.00 | 0.00 | 0.00 | 34 | 1011.9 |
| 20260506125403 | 69 | 11 | 2.6 | 6.1 | 0.00 | 0.00 | 0.00 | 34 | 1011.9 |
| 20260506124717 | 70 | 321 | 3.5 | 7.0 | 0.00 | 0.00 | 0.00 | 32 | 1011.8 |
| 20260506123603 | 70 | 327 | 2.6 | 7.0 | 0.00 | 0.00 | 0.00 | 34 | 1012.1 |
| 20260506122703 | 69 | 194 | 1.7 | 3.5 | 0.00 | 0.00 | 0.00 | 34 | 1011.9 |
| 20260506122017 | 69 | 320 | 2.6 | 7.0 | 0.00 | 0.00 | 0.00 | 32 | 1011.8 |
| 20260506120903 | 69 | 322 | 2.6 | 7.8 | 0.00 | 0.00 | 0.00 | 33 | 1011.9 |
| 20260506120004 | 69 | 342 | 2.6 | 7.0 | 0.00 | 0.00 | 0.00 | 33 | 1012.2 |
| 20260506115403 | 70 | 168 | 1.7 | 5.2 | 0.00 | 0.00 | 0.00 | 34 | 1012.2 |
| 20260506114717 | 68 | 270 | 2.6 | 7.0 | 0.00 | 0.00 | 0.00 | 35 | 1012.3 |
| 20260506113818 | 68 | 264 | 2.6 | 7.0 | 0.00 | 0.00 | 0.00 | 37 | 1012.5 |
| 20260506112917 | 67 | 297 | 2.6 | 7.8 | 0.00 | 0.00 | 0.00 | 36 | 1012.6 |
| 20260506111803 | 67 | 236 | 2.6 | 6.1 | 0.00 | 0.00 | 0.00 | 37 | 1012.6 |
| 20260506111118 | 67 | 289 | 3.5 | 7.8 | 0.00 | 0.00 | 0.00 | 37 | 1012.8 |
| 20260506110004 | 68 | 333 | 2.6 | 7.0 | 0.00 | 0.00 | 0.00 | 39 | 1012.7 |
| 20260506105403 | 67 | 322 | 3.5 | 7.0 | 0.00 | 0.00 | 0.00 | 38 | 1012.5 |
| 20260506104503 | 67 | 345 | 3.5 | 7.0 | 0.00 | 0.00 | 0.00 | 42 | 1013.1 |
| 20260506103603 | 67 | 330 | 3.5 | 7.8 | 0.00 | 0.00 | 0.00 | 41 | 1012.9 |
| 20260506102703 | 66 | 315 | 3.5 | 7.0 | 0.00 | 0.00 | 0.00 | 44 | 1012.9 |
| 20260506101803 | 65 | 330 | 4.3 | 8.7 | 0.00 | 0.00 | 0.00 | 47 | 1012.9 |
| 20260506100903 | 65 | 320 | 3.5 | 7.0 | 0.00 | 0.00 | 0.00 | 49 | 1012.8 |
| 20260506100004 | 64 | 325 | 3.5 | 7.8 | 0.00 | 0.00 | 0.00 | 50 | 1013.1 |
| 20260506095403 | 64 | 331 | 3.5 | 7.0 | 0.00 | 0.00 | 0.00 | 50 | 1013.1 |
| 20260506094718 | 63 | 322 | 4.3 | 7.8 | 0.00 | 0.00 | 0.00 | 53 | 1013.1 |
| 20260506093817 | 63 | 294 | 4.3 | 7.8 | 0.00 | 0.00 | 0.00 | 54 | 1013.2 |
| 20260506092703 | 62 | 304 | 4.3 | 7.0 | 0.00 | 0.00 | 0.00 | 57 | 1012.8 |
| 20260506091803 | 62 | 304 | 3.5 | 7.8 | 0.00 | 0.00 | 0.00 | 55 | 1013.0 |
| 20260506090903 | 62 | 317 | 2.6 | 6.1 | 0.00 | 0.00 | 0.00 | 56 | 1013.1 |
| 20260506090217 | 61 | 338 | 3.5 | 6.1 | 0.00 | 0.00 | 0.00 | 56 | 1013.2 |
| 20260506085403 | 60 | 326 | 2.6 | 7.0 | 0.00 | 0.00 | 0.00 | 57 | 1013.1 |
| 20260506084718 | 61 | 347 | 2.6 | 7.0 | 0.00 | 0.00 | 0.00 | 58 | 1013.0 |
| 20260506083603 | 60 | 325 | 3.5 | 6.1 | 0.00 | 0.00 | 0.00 | 62 | 1013.1 |
| 20260506082918 | 59 | 318 | 2.6 | 6.1 | 0.00 | 0.00 | 0.00 | 60 | 1013.1 |
| 20260506081803 | 59 | 281 | 2.6 | 5.2 | 0.00 | 0.00 | 0.00 | 59 | 1013.0 |
| 20260506080903 | 57 | 291 | 2.6 | 5.2 | 0.00 | 0.00 | 0.00 | 62 | 1013.1 |
| 20260506072703 | 57 | 15 | 1.7 | 3.5 | 0.00 | 0.00 | 0.00 | 67 | 1012.8 |
| 20260506072017 | 57 | 51 | 0.9 | 2.6 | 0.00 | 0.00 | 0.00 | 70 | 1012.9 |
| 20260506070903 | 57 | 68 | 0.9 | 2.6 | 0.00 | 0.00 | 0.00 | 72 | 1012.9 |
| 20260506061803 | 57 | 10 | 1.7 | 3.5 | 0.00 | 0.00 | 0.00 | 72 | 1013.0 |
| 20260506060903 | 56 | 336 | 1.7 | 2.6 | 0.00 | 0.00 | 0.00 | 72 | 1012.7 |
| 20260506050903 | 53 | 108 | 0.0 | 0.9 | 0.00 | 0.00 | 0.00 | 82 | 1012.5 |
| 20260506044503 | 53 | 108 | 0.9 | 1.7 | 0.00 | 0.00 | 0.00 | 82 | 1012.6 |
| 20260506043817 | 54 | 108 | 0.9 | 1.7 | 0.00 | 0.00 | 0.00 | 82 | 1012.7 |
| 20260506042703 | 53 | 108 | 0.9 | 1.7 | 0.00 | 0.00 | 0.00 | 83 | 1012.8 |
| 20260506042018 | 53 | 108 | 0.9 | 2.6 | 0.00 | 0.00 | 0.00 | 83 | 1012.8 |
| 20260506040903 | 52 | 108 | 0.9 | 1.7 | 0.00 | 0.00 | 0.00 | 84 | 1013.0 |
| 20260506040005 | 51 | 109 | 0.9 | 1.7 | 0.00 | 0.00 | 0.00 | 87 | 1012.6 |
| 20260506035403 | 50 | 110 | 0.9 | 1.7 | 0.00 | 0.00 | 0.00 | 88 | 1012.9 |
| 20260506034503 | 50 | 113 | 0.9 | 2.6 | 0.00 | 0.00 | 0.00 | 87 | 1012.9 |
| 20260506033603 | 50 | 120 | 1.7 | 2.6 | 0.00 | 0.00 | 0.00 | 88 | 1012.9 |
| 20260506032703 | 50 | 125 | 1.7 | 1.7 | 0.00 | 0.00 | 0.00 | 87 | 1013.0 |
| 20260506031803 | 51 | 130 | 1.7 | 1.7 | 0.00 | 0.00 | 0.00 | 86 | 1013.0 |
| 20260506031117 | 52 | 126 | 0.9 | 1.7 | 0.00 | 0.00 | 0.00 | 84 | 1012.9 |
| 20260506030003 | 52 | 130 | 0.9 | 1.7 | 0.00 | 0.00 | 0.00 | 85 | 1013.0 |
| 20260506025403 | 52 | 131 | 0.9 | 2.6 | 0.00 | 0.00 | 0.00 | 85 | 1012.9 |
| 20260506024503 | 52 | 125 | 0.9 | 2.6 | 0.00 | 0.00 | 0.00 | 85 | 1013.0 |